Regional Weather Roundup
Issued by NWS State College, PA

Home | Current Version | Previous Version | Text Only | Print | Product List | Glossary On
Versions: 1 2 3 4 5 6 7 8 9 10 11 12 13 14 15 16 17 18 19 20 21 22 23 24 25 26 27 28 29 30 31 32 33 34 35 36 37 38 39 40 41 42 43 44 45 46 47 48 49 50
000
ASUS41 KCTP 270110
RWRCTP

REGIONAL WEATHER ROUNDUP
NATIONAL WEATHER SERVICE STATE COLLEGE PA
900 PM EDT FRI AUG 26 2016

Note: "fair" indicates few or no clouds below 12,000 feet with no
significant weather and/or obstructions to visibility.

* = STATION THAT DOES NOT REPORT PRECIPITATION /E.G. RAIN...SNOW...ETC/
    THUNDER OR FOG.

PAZ002>004-007>009-013>016-020>023-029>032-270200-
WESTERN PENNSYLVANIA

CITY           SKY/WX    TMP DP  RH WIND       PRES   REMARKS
ERIE           CLEAR     71  63  75 S3        30.14R
MEADVILLE      CLEAR     69  58  67 N3        30.17R
FRANKLIN*        N/A     70  61  73 CALM      30.18R
NEW CASTLE     FAIR      70  63  78 CALM      30.15R
BEAVER COUNTY  CLEAR     75  59  57 CALM      30.15R
BUTLER*        NOT AVBL
PITTSBURGH INT PTCLDY    80  57  45 CALM      30.14R
PITTSBURGH     CLEAR     78  59  51 N3        30.14R
INDIANA*       PTCLDY    70  66  88 CALM      30.18R
LATROBE        PTCLDY    73  68  83 CALM      30.14S
WASHINGTON CO* CLEAR     72  66  83 CALM      30.15R
$$

PAZ004>006-010>012-017>019-024>028-033>037-041-042-045-046-049>053-270200-
CENTRAL PENNSYLVANIA

CITY           SKY/WX    TMP DP  RH WIND       PRES   REMARKS
BRADFORD       CLEAR     66  63  90 CALM      30.19R
DUBOIS         CLEAR     70  62  76 CALM      30.17R
CLEARFIELD     CLEAR     71  67  87 N6        30.16R
JOHNSTOWN      CLEAR     73  60  63 CALM      30.20R
ALTOONA        CLEAR     68  65  90 CALM      30.16R
STATE COLLEGE  CLEAR     77  64  65 CALM      30.14R
WILLIAMSPORT   CLEAR     76  66  71 CALM      30.08R
SELINSGROVE    CLEAR     71  71 100 CALM      30.09R
FT INDIANTOWN  CLEAR     73  66  81 CALM      30.09R
CAPITAL CITY   CLEAR     79  67  66 SW3       30.08R
HARRISBURG     PTCLDY    78  72  81 CALM      30.07R
YORK           CLEAR     72  68  87 CALM      30.08R
$$

PAZ038>040-043-044-047-048-054-055-060>062-067>071-270200-
EASTERN PENNSYLVANIA

CITY           SKY/WX    TMP DP  RH WIND       PRES   REMARKS
SCRANTON       CLEAR     74  63  68 E6        30.11R
MOUNT POCONO   CLEAR     65  61  87 NW5       30.16R
ALLENTOWN      CLEAR     77  62  59 NW3       30.07R
QUAKERTOWN*    CLEAR     75  63  64 CALM      30.09R
READING        CLEAR     79  64  60 NW5       30.07R
LANCASTER      CLEAR     76  69  79 N7        30.08R
COATESVILLE    CLEAR     79  64  61 NW5       30.10R
POTTSTOWN      CLEAR     78  66  66 CALM      30.08R
BLUE BELL      CLEAR     75  66  73 CALM      30.05R
DOYLESTOWN     CLEAR     80  65  59 N3        30.06R
WILLOW GROVE   NOT AVBL
NORTH PHILA    CLEAR     85  64  49 N8        30.06R
PHILADELPHIA   CLEAR     87  64  46 NW9       30.04R
$$



USA.gov is the U.S. government's official web portal to all federal, state and local government web resources and services.